Flag for Poland Weather past 2 weeks in Gorzów Wielkopolski, Poland

Now
29 °F

Fog.


Feels Like: 29 °F
Forecast: 37 / 49 °F
Wind: 2 mph from Southwest

Location: Gorzow Wlkp

Current Time: Mar 6, 2015 at 9:35:16 AM

Latest Report: Mar 6, 2015 at 8:00 AM


Visibility: 1 mi

Pressure: 30.53 "Hg

Humidity: 98%

Dew point: 29 °F

Location of Gorzów WielkopolskiLocation

Historic Weather in Gorzów Wielkopolski — Graph

°F

Gorzów Wielkopolski temperature yesterday

Maximum temperature yesterday: 41 °F (at 4:00 PM)
Minimum temperature yesterday: 33 °F (at 3:00 AM)
Average temperature yesterday: 37 °F

Past Weeks' High & Low Weather Summary

 TemperatureHumidityPressure
High50 °F (Feb 21, 2:00 PM)99% (Mar 6, 6:00 AM)30.54 "Hg (Mar 6, 6:00 AM)
Low25 °F (Feb 20, 7:00 AM)44% (Feb 21, 11:00 AM)29.38 "Hg (Feb 21, 3:00 PM)
Average37 °F80%29.91 "Hg
* Reported Feb 19 8:00 AM — Mar 6 8:00 AM, Gorzów Wielkopolski, Weather by CustomWeather, © 2015

Note: Actual official high and low records may vary slightly from our data, if they occured in-between our weather recording intervals... More about our weather records

Advertising

Gorzów Wielkopolski weather history for previous 24 hours

 ConditionsComfort  
Time TempWeatherWind HumidityBarometerVisibility
8:00 AM
Fri, Mar 6
29 °FFog.2 mph98%30.53 "Hg1 mi
7:00 AM28 °FFog.2 mph99%30.54 "Hg0 mi
6:00 AM28 °FFog.2 mph99%30.54 "Hg0 mi
5:00 AM29 °FFog.1 mph98%30.54 "Hg0 mi
3:00 AM28 °FFog.2 mph97%30.53 "Hg0 mi
2:00 AM31 °FFog.1 mph97%30.54 "Hg1 mi
1:00 AM31 °FFog.1 mph96%30.54 "Hg1 mi
12:00 AM32 °FFog.1 mph93%30.53 "Hg2 mi
11:00 PM
Thu, Mar 5
34 °FClear.1 mph93%30.53 "Hg12 mi
8:00 PM37 °FPassing clouds.2 mph86%30.51 "Hg19 mi
7:00 PM38 °FPassing clouds.2 mph81%30.49 "Hg19 mi
6:00 PM40 °FPassing clouds.2 mph78%30.47 "Hg16 mi
5:00 PM41 °FOvercast.3 mph72%30.46 "Hg19 mi
4:00 PM41 °FOvercast.3 mph68%30.45 "Hg19 mi
3:00 PM41 °FOvercast.3 mph68%30.45 "Hg19 mi
2:00 PM40 °FOvercast.5 mph67%30.45 "Hg19 mi
1:00 PM40 °FOvercast.6 mph67%30.45 "Hg19 mi
12:00 PM40 °FPartly sunny.5 mph67%30.43 "Hg16 mi
11:00 AM40 °FScattered clouds.5 mph68%30.42 "Hg16 mi
10:00 AM38 °FOvercast.3 mph85%30.42 "Hg7 mi
9:00 AM37 °FFog.3 mph89%30.40 "Hg5 mi
Weather by CustomWeather, © 2015

See weather overviewHow to use our weather pages